Hobart, OK

12:43 PM CST on December 10, 2016 (GMT -0600)
Hobart Municipal

Weather History for KHBR - July, 2013

Change the Weather History Date:

Wednesday, July 24, 2013

  Actual Average Record
Temperature  
Mean Temperature 85 °F -  
Max Temperature 99 °F 96 °F 108 °F (1998)
Min Temperature 73 °F 70 °F 62 °F (2000)
Cooling Degree Days 20    
Growing Degree Days 35 (Base 50)    
Moisture  
Dew Point 67 °F    
Average Humidity 56    
Maximum Humidity 76    
Minimum Humidity 32    
Precipitation  
Precipitation 0.00 in - - ()
Sea Level Pressure  
Sea Level Pressure 29.90 in    
Wind  
Wind Speed 11 mph (SE)    
Max Wind Speed 22 mph    
Max Gust Speed 30 mph    
Visibility 10 miles    
Events      
Averages and records for this station are not official NWS values.
T = Trace of Precipitation, MM = Missing Value Source: NWS Daily Summary

Daily Weather History Graph

Daily Weather History Graph

Search for Another Location

Airport or City:

Trip Planner

Search our weather history database for the weather conditions in past years. The results will help you decide how hot, cold, wet, or windy it might be!

Date:

Astronomy

Jul. 24, 2013 Rise Set
Actual Time 6:39 AM CDT 8:45 PM CDT
Civil Twilight 6:11 AM CDT 9:13 PM CDT
Nautical Twilight 5:37 AM CDT 9:47 PM CDT
Astronomical Twilight 4:59 AM CDT 10:24 PM CDT
Moon 10:01 PM CDT (7/24) 8:54 AM CDT (7/24)
Length of Visible Light 15h 01m
Length of Day
14h 05m
Waning Gibbous, 94% of the Moon is Illuminated
Jul 24
Waning Gibbous
Jul 29
Last Quarter
Aug 6
New
Aug 14
First Quarter
Aug 20
Full

Hourly Weather History & Observations

Time (CDT) Temp. Heat Index Dew Point Humidity Pressure Visibility Wind Dir Wind Speed Gust Speed Precip Events Conditions
12:53 AM 81.0 °F 84.1 °F 69.1 °F 67% 29.81 in 10.0 mi South 9.2 mph - N/A   Clear
1:53 AM 81.0 °F 84.4 °F 70.0 °F 69% 29.80 in 10.0 mi SSW 10.4 mph - N/A   Clear
2:53 AM 80.1 °F 83.2 °F 70.0 °F 71% 29.80 in 10.0 mi SSW 8.1 mph - N/A   Clear
3:53 AM 80.1 °F 83.2 °F 70.0 °F 71% 29.81 in 10.0 mi SSW 11.5 mph - N/A   Clear
4:53 AM 79.0 °F - 70.0 °F 74% 29.81 in 10.0 mi South 8.1 mph - N/A   Clear
5:53 AM 80.1 °F 83.2 °F 70.0 °F 71% 29.84 in 10.0 mi ESE 8.1 mph - N/A   Mostly Cloudy
6:53 AM 80.1 °F 83.2 °F 70.0 °F 71% 29.90 in 10.0 mi East 19.6 mph 26.5 mph N/A   Mostly Cloudy
7:53 AM 73.0 °F - 64.9 °F 76% 29.94 in 10.0 mi SE 17.3 mph 27.6 mph N/A   Partly Cloudy
8:53 AM 75.9 °F - 64.0 °F 67% 29.97 in 10.0 mi ESE 21.9 mph 29.9 mph N/A   Clear
9:53 AM 80.1 °F 81.9 °F 64.9 °F 60% 29.97 in 10.0 mi South 12.7 mph - N/A   Clear
10:53 AM 82.9 °F 84.4 °F 64.0 °F 53% 29.96 in 10.0 mi South 11.5 mph - N/A   Clear
11:53 AM 88.0 °F 88.7 °F 63.0 °F 43% 29.95 in 10.0 mi South 11.5 mph 16.1 mph N/A   Clear
12:53 PM 90.0 °F 90.3 °F 62.1 °F 39% 29.96 in 10.0 mi SSE 9.2 mph - N/A   Clear
1:53 PM 91.9 °F 92.9 °F 63.0 °F 38% 29.94 in 10.0 mi South 8.1 mph - N/A   Clear
2:53 PM 93.0 °F 94.2 °F 63.0 °F 37% 29.93 in 10.0 mi Variable 3.5 mph - N/A   Clear
3:53 PM 96.1 °F 97.3 °F 63.0 °F 33% 29.91 in 10.0 mi NE 9.2 mph - N/A   Clear
4:53 PM 96.1 °F 96.9 °F 62.1 °F 32% 29.88 in 10.0 mi SSE 3.5 mph - N/A   Partly Cloudy
5:53 PM 97.0 °F 98.3 °F 63.0 °F 32% 29.88 in 10.0 mi East 9.2 mph - N/A   Partly Cloudy
6:53 PM 96.1 °F 97.3 °F 63.0 °F 33% 29.88 in 10.0 mi ESE 8.1 mph - N/A   Mostly Cloudy
7:53 PM 91.9 °F 95.9 °F 68.0 °F 45% 29.90 in 10.0 mi East 17.3 mph 24.2 mph N/A   Clear
8:53 PM 87.1 °F 92.0 °F 70.0 °F 57% 29.93 in 10.0 mi ESE 12.7 mph - N/A   Clear
9:53 PM 84.0 °F 88.4 °F 70.0 °F 63% 29.96 in 10.0 mi East 10.4 mph - N/A   Clear
10:53 PM 82.0 °F 85.9 °F 70.0 °F 67% 29.98 in 10.0 mi ESE 9.2 mph - N/A   Clear
11:53 PM 80.1 °F 83.2 °F 70.0 °F 71% 29.99 in 10.0 mi East 9.2 mph - N/A   Clear